RH
15 14 14 13 12 12 12 11 11 10 10 10 10 10 9 9 9 9 9 9 9 9 9 9 8 8 8 7 7 6 5 4 4 4 4 3 8 13 13 14 14 10 6 6 7 8 9 6 9 21 29 29 26 22 17 14 11 11 13 17 17 16 14 9 7 7 9 7 8 7 6 8 6 6 6 6 7 9 34 49 44 47 43 44 52 55 64 75
15 14 13 13 12 12 11 11 11 10 10 10 10 9 9 9 8 9 8 8 8 8 9 8 9 8 8 8 7 6 5 4 4 4 3 4 7 14 17 16 14 12 9 6 6 8 12 11 13 24 30 28 23 19 15 12 9 10 14 17 14 13 10 7 6 6 8 7 7 7 6 8 5 7 5 6 8 5 31 55 53 59 61 58 64 67 71 79
15 14 13 12 12 12 12 11 10 10 9 9 9 9 9 8 8 8 7 8 7 7 8 7 8 7 8 7 7 7 5 5 4 3 3 3 4 8 14 15 13 13 11 6 6 12 17 17 20 26 27 24 20 17 14 9 9 9 12 16 13 9 8 6 6 6 7 6 7 7 6 6 5 6 5 7 7 8 34 57 61 71 76 73 73 74 79 83
15 14 13 13 13 12 11 11 11 10 10 10 9 8 8 8 8 7 7 7 7 8 7 7 7 6 7 6 7 7 4 10 12 7 8 8 8 11 12 12 12 13 10 6 11 20 23 22 23 23 22 20 17 14 12 8 9 9 10 14 11 8 8 6 6 7 7 7 7 6 6 6 5 5 6 7 6 20 47 54 54 64 69 72 74 77 83 88
15 13 14 13 12 12 12 11 11 10 10 9 8 8 8 8 8 7 7 7 7 7 6 7 6 6 7 5 8 5 9 29 31 22 20 17 16 16 13 13 14 15 9 7 19 27 26 25 23 20 18 17 14 13 10 8 8 9 9 9 8 8 7 6 6 7 7 7 7 6 7 6 5 5 6 7 6 20 45 48 42 44 51 64 75 78 84 90
15 14 15 13 13 13 11 11 10 10 9 9 9 8 8 8 7 7 7 7 7 7 7 7 6 7 5 6 8 4 16 36 34 31 30 22 19 17 16 16 16 14 8 11 24 29 28 27 23 18 16 14 13 13 9 7 7 8 9 7 7 7 6 6 5 7 7 7 7 6 7 5 6 7 6 7 6 16 34 39 37 37 42 57 74 80 84 88
15 15 15 13 13 11 10 10 9 9 8 8 8 7 8 7 7 8 7 7 7 7 7 7 7 7 5 7 6 10 26 27 17 25 29 23 20 18 17 16 16 12 7 19 29 30 31 27 21 17 15 14 12 12 9 7 6 7 8 7 6 6 6 6 5 7 6 6 7 6 6 5 7 7 7 6 5 19 34 36 37 40 43 51 68 79 82 85
16 15 13 12 11 10 10 9 8 8 8 8 8 7 7 7 7 7 6 7 6 7 7 7 8 6 7 6 8 30 42 23 12 20 22 20 18 18 18 15 16 11 9 25 32 30 31 25 20 17 15 15 11 10 9 7 6 6 7 6 6 6 5 5 5 6 6 7 7 6 7 6 6 6 7 6 4 23 39 40 42 45 51 56 63 76 80 82
16 15 12 11 10 9 9 8 8 8 7 8 7 7 7 6 7 6 7 7 6 7 5 7 7 6 8 2 17 49 44 23 24 26 22 16 12 13 12 12 15 10 14 28 30 30 30 23 18 16 15 14 11 9 7 8 8 6 6 6 6 5 5 5 5 6 6 7 6 6 7 5 7 6 6 6 3 22 42 42 44 46 54 61 64 70 73 76
16 14 11 11 9 9 9 8 8 7 8 8 7 7 6 6 6 5 6 5 6 6 5 7 5 6 8 6 36 59 34 25 34 29 26 18 13 12 5 8 13 9 14 23 26 29 27 21 16 14 14 12 10 9 7 8 7 6 6 6 6 5 5 5 5 5 5 6 6 6 8 6 6 5 7 7 1 18 41 41 45 50 50 58 64 66 69 70
15 13 12 11 9 9 8 8 8 8 8 7 7 7 6 6 6 6 6 5 5 4 4 5 4 7 6 12 47 52 20 26 36 27 27 21 14 11 3 7 11 8 10 18 22 24 21 17 14 12 11 9 8 7 6 7 6 6 6 6 7 6 6 7 6 7 6 6 7 6 8 7 6 7 5 6 3 10 31 42 50 55 49 55 66 66 67 66
15 13 12 10 10 9 8 9 7 8 7 7 8 6 6 5 5 5 4 4 4 4 5 4 5 5 5 11 27 25 11 22 33 27 26 22 13 6 6 9 9 8 14 21 22 18 16 14 12 10 9 9 7 7 7 7 6 6 6 7 7 6 6 7 7 7 6 6 7 6 9 8 6 7 4 5 5 2 21 45 52 53 50 54 66 67 64 62
15 12 13 11 11 10 9 10 7 8 7 7 7 5 7 5 5 5 3 5 3 5 3 3 5 1 13 23 13 9 12 15 21 27 31 27 15 9 15 17 12 14 20 24 20 15 14 12 11 11 10 10 9 8 9 8 7 6 6 7 8 9 8 7 6 6 6 6 6 6 12 15 7 6 5 4 6 1 16 45 52 50 52 56 64 64 62 63
15 12 13 10 12 11 10 10 7 8 6 7 7 6 6 3 5 3 2 5 2 7 5 6 7 1 21 26 5 9 16 12 16 25 34 29 18 17 22 22 18 19 22 21 19 16 14 12 12 11 11 12 10 9 9 8 9 7 7 8 10 13 10 6 6 6 7 6 5 6 12 16 8 6 6 3 7 2 8 37 49 47 53 58 58 52 52 58
15 13 12 12 12 11 11 10 8 8 6 7 5 5 6 4 6 3 4 5 3 11 8 9 6 7 38 29 2 15 18 13 18 21 30 29 22 22 23 25 21 19 20 19 20 18 16 14 13 12 12 11 10 11 11 11 11 8 11 16 14 12 11 7 6 6 6 6 5 7 11 13 7 7 6 3 7 1 8 35 44 42 49 53 51 46 50 54
14 14 12 12 11 10 11 9 8 8 6 6 5 6 5 3 4 2 4 2 8 17 12 22 22 17 49 40 9 20 19 12 16 18 24 26 24 23 23 25 20 18 19 19 20 19 17 16 14 13 11 10 10 11 12 15 16 12 13 21 18 12 12 9 7 6 5 6 6 7 11 11 8 7 5 4 5 2 15 40 45 43 45 44 46 49 54 57
15 14 12 11 11 10 10 9 8 6 5 5 4 4 3 4 5 3 5 4 12 19 15 36 53 41 42 34 19 23 20 15 14 15 20 23 24 22 22 22 19 19 20 20 20 18 17 15 15 15 12 11 12 11 16 21 24 21 15 18 17 12 12 10 8 6 4 6 6 7 8 9 8 7 5 5 5 4 13 35 47 45 40 41 47 48 49 50
14 13 12 11 10 10 9 9 7 5 5 5 4 5 4 3 1 -0 5 12 24 34 31 38 63 69 47 27 24 20 17 18 13 11 16 20 22 21 20 20 19 20 19 20 20 18 18 14 13 17 15 15 14 14 20 22 22 23 21 19 17 13 12 10 8 6 5 7 8 9 9 9 9 7 6 5 5 6 7 21 41 45 40 45 49 44 44 45
13 13 12 11 11 11 9 7 6 6 5 4 5 3 1 7 19 28 25 30 45 54 53 47 52 57 34 16 17 14 16 19 12 10 14 18 22 21 20 20 19 18 19 22 22 19 17 16 15 19 21 19 16 14 17 17 13 15 17 17 16 15 13 9 8 6 5 7 9 11 11 10 9 7 8 6 5 8 5 8 28 45 47 48 48 43 43 42
13 13 12 12 12 9 7 7 7 7 4 5 5 1 13 38 59 73 61 49 48 37 32 35 31 24 13 12 15 13 17 17 11 10 11 18 22 21 20 19 17 18 21 24 26 21 16 21 24 22 22 19 16 14 13 12 11 11 12 13 13 14 14 10 8 6 7 11 10 10 12 10 10 11 10 8 6 9 9 7 16 38 52 50 48 46 41 34
13 13 13 12 11 8 7 6 5 7 5 5 4 2 25 49 51 58 57 46 40 28 24 28 26 22 18 18 17 15 18 16 14 10 9 16 18 18 19 17 19 22 24 22 23 22 19 27 28 20 17 14 13 16 17 16 14 14 13 14 14 15 15 10 8 7 8 15 14 11 12 11 12 13 11 9 9 10 12 11 10 28 52 54 48 47 42 37
13 14 13 12 10 7 5 6 7 8 5 5 6 1 16 38 35 34 37 34 32 31 31 31 33 35 27 22 20 17 20 19 17 11 8 14 13 14 16 14 19 23 24 22 24 28 26 28 24 16 14 13 13 15 19 19 17 17 15 15 18 17 16 15 12 7 7 14 16 13 13 14 16 16 14 11 10 9 8 11 7 19 47 56 52 52 48 45
14 13 13 11 8 6 7 7 4 4 5 5 5 1 13 35 34 29 32 35 34 28 27 29 38 43 31 24 21 16 19 19 18 14 10 12 12 12 13 14 17 19 22 24 29 34 31 25 18 13 13 14 16 16 19 19 19 22 19 17 20 17 16 21 17 9 8 15 19 18 17 19 18 16 17 12 10 9 5 8 6 10 31 44 47 50 49 47
15 13 13 10 7 8 7 4 7 23 28 15 8 8 17 32 33 31 35 38 36 23 17 18 26 36 31 22 18 15 16 16 16 16 12 12 12 11 12 14 14 18 21 21 24 29 26 19 13 13 13 13 17 18 20 21 21 27 25 21 23 19 16 19 17 11 12 17 20 20 23 29 24 17 17 13 10 11 7 8 7 7 19 32 38 41 40 39
16 14 12 9 9 9 4 13 34 53 47 24 22 26 24 29 34 37 42 48 47 29 15 14 15 23 24 17 15 13 14 15 13 14 15 15 14 13 12 12 14 18 19 17 20 22 19 15 13 15 13 11 14 16 20 24 24 29 29 20 19 19 17 15 13 13 17 25 24 16 24 40 33 17 17 15 11 11 9 8 7 7 14 26 37 38 35 31
16 13 11 9 11 7 5 35 63 57 41 30 33 36 31 34 38 38 49 63 58 32 16 16 14 15 18 16 13 12 14 16 12 11 16 17 15 14 13 12 13 16 16 14 17 17 15 13 12 16 15 12 13 12 16 25 27 28 25 17 15 15 16 15 12 14 19 26 25 16 22 38 35 22 19 17 13 13 11 11 10 6 6 15 27 34 36 32
15 12 12 10 11 9 6 39 68 55 43 43 39 37 34 37 37 35 57 79 61 27 15 15 13 13 15 14 10 13 19 17 12 11 14 18 16 13 15 14 13 14 12 12 17 18 14 14 14 15 15 15 18 17 15 20 26 28 20 13 14 12 13 14 11 14 19 19 22 21 18 23 30 28 20 14 14 14 12 13 12 8 11 20 27 37 45 41
15 12 12 10 11 11 7 23 45 46 49 47 38 38 37 36 39 42 72 93 57 19 14 14 14 13 11 13 11 13 17 14 13 12 11 17 17 14 16 15 13 14 10 13 23 21 15 18 17 15 17 17 17 17 15 16 20 22 15 12 13 11 12 13 13 18 20 18 25 29 20 17 30 34 22 12 11 15 22 30 30 26 31 37 37 41 45 44
15 11 10 13 9 14 22 20 22 33 44 45 40 39 35 36 42 53 82 87 39 12 18 15 14 16 12 14 14 12 12 11 13 11 9 17 17 13 16 15 14 16 12 13 22 20 13 15 14 13 17 18 14 14 13 15 17 14 11 11 11 10 11 15 20 22 22 26 32 32 22 18 30 35 25 18 19 26 37 44 44 41 43 47 49 48 43 42
14 11 11 13 8 20 33 21 19 31 32 39 43 36 36 46 55 68 82 67 28 14 20 15 15 17 14 15 16 14 13 12 11 8 9 16 16 12 13 13 13 16 17 14 16 15 10 10 11 12 14 13 12 13 12 13 14 11 10 10 12 16 18 21 24 20 22 35 36 29 23 20 25 30 26 29 35 39 43 49 54 56 57 62 68 67 62 59
12 12 12 11 10 21 28 24 38 49 41 49 48 34 43 59 67 81 71 37 21 21 18 18 17 15 16 18 18 16 13 13 11 8 8 13 17 14 13 15 14 18 25 22 18 15 9 10 12 10 11 11 11 12 12 12 11 11 13 13 17 26 25 23 27 23 27 42 37 20 17 17 22 31 36 43 46 45 52 63 70 73 73 76 81 79 75 75
12 13 11 10 11 14 21 38 60 62 57 61 51 40 58 67 65 75 60 24 20 26 19 20 18 13 16 16 16 16 15 16 12 7 8 12 19 19 16 21 21 24 32 30 26 21 12 12 13 12 11 10 12 16 15 13 12 12 16 18 21 29 30 29 33 33 34 42 34 17 14 18 27 39 45 49 52 56 66 74 77 80 81 81 85 87 78 77
14 13 9 11 13 8 14 44 68 65 58 58 52 52 69 80 68 55 46 30 23 19 14 16 16 13 15 14 15 15 14 17 13 9 11 12 18 19 14 17 17 23 33 34 31 26 20 15 11 13 14 10 14 20 22 20 17 15 18 24 29 30 32 34 35 34 34 35 27 20 22 23 33 52 53 46 50 59 70 79 82 84 86 83 85 91 89 84
13 11 11 12 13 9 7 34 63 58 49 59 67 69 75 87 72 40 34 32 19 13 11 13 14 13 14 14 13 14 15 18 13 12 15 14 19 23 18 14 13 17 25 29 31 29 30 29 19 14 14 12 14 16 20 20 17 17 15 19 31 32 29 33 33 31 34 40 36 29 29 30 44 66 61 45 47 57 71 82 84 83 83 82 84 91 96 94
11 11 19 12 9 12 3 25 59 52 54 74 76 76 83 83 64 40 31 22 11 11 10 9 12 13 15 13 11 12 16 18 14 13 18 18 21 24 19 15 11 13 20 28 31 24 25 32 21 13 12 12 15 14 13 16 19 21 14 13 27 31 27 29 31 30 34 45 46 34 34 45 58 67 57 46 52 62 75 84 86 86 80 76 84 91 96 99
13 18 33 22 14 17 5 23 53 49 66 90 80 78 79 61 46 33 20 12 10 11 9 11 13 12 15 13 10 11 13 17 17 16 18 17 18 18 16 14 9 9 17 28 30 21 25 33 18 9 13 11 13 15 11 14 23 25 19 19 23 20 20 26 34 35 30 38 44 32 31 46 57 62 55 51 59 69 81 86 86 88 83 81 91 92 90 93
16 22 41 39 31 31 19 24 41 49 76 94 87 81 61 37 32 21 10 11 12 9 10 16 15 12 15 15 13 11 11 15 16 19 23 20 19 17 11 12 10 9 12 20 26 23 27 37 23 10 14 12 10 14 11 10 16 20 21 21 16 13 16 21 30 37 32 36 40 30 36 55 64 68 64 62 71 81 86 87 86 88 91 92 95 90 85 87
21 25 42 49 51 57 47 31 33 55 81 89 89 80 50 33 30 15 10 14 10 9 13 16 14 11 12 15 14 10 11 18 19 22 25 21 27 30 20 14 12 9 7 11 20 22 21 31 28 13 12 14 9 11 16 13 9 13 17 14 17 26 28 22 24 34 40 44 38 31 50 75 79 79 82 84 90 92 90 89 90 93 96 97 97 94 89 89
37 57 62 56 65 80 68 45 45 65 78 82 85 70 43 32 25 12 12 12 9 12 14 12 12 13 12 11 13 12 13 19 21 25 26 23 34 43 32 24 22 18 16 14 16 19 21 33 39 24 12 13 12 15 27 25 13 11 13 11 18 29 31 28 27 32 40 45 39 39 61 84 88 87 93 96 93 90 91 92 94 97 98 98 98 97 97 96
58 90 82 59 66 81 70 56 62 69 69 70 66 49 31 23 16 11 12 12 11 13 16 17 18 21 20 13 13 16 14 17 21 25 28 30 43 48 34 28 33 32 29 26 25 26 24 32 44 36 17 14 19 21 26 27 20 17 19 18 20 22 23 27 32 30 31 41 48 52 67 85 92 91 91 94 92 90 92 93 94 97 97 96 95 96 100 99
83 100 81 58 62 70 65 66 69 63 57 55 45 32 26 20 15 15 16 14 13 13 16 19 20 25 26 21 20 18 15 17 17 20 28 36 51 59 41 28 33 37 41 45 44 41 37 36 43 40 27 25 26 16 13 18 17 18 22 22 19 20 22 28 39 36 24 37 57 63 75 92 95 90 89 92 92 92 92 92 93 95 93 92 94 94 97 98
100 97 77 66 63 57 59 66 62 51 48 45 34 26 22 17 15 17 17 16 13 12 14 17 19 22 22 22 21 16 17 19 17 26 41 46 51 55 42 31 31 34 46 55 50 48 48 42 40 37 30 26 20 13 14 14 12 18 29 30 25 30 34 34 46 50 37 41 57 64 81 99 95 88 90 91 90 90 92 91 90 91 90 89 91 91 92 96
95 86 75 75 63 48 54 62 54 48 46 39 30 24 20 17 16 14 15 16 14 13 16 18 19 19 20 20 17 15 21 22 19 31 46 48 49 46 36 34 35 34 49 63 60 56 51 43 42 40 35 34 26 17 16 15 21 35 44 46 45 49 55 46 44 59 64 62 61 62 82 101 95 87 88 89 89 90 90 90 88 88 89 87 88 89 92 95
88 80 81 83 65 48 58 66 58 54 49 40 35 30 23 20 18 17 19 18 14 15 20 21 18 18 19 17 16 17 21 23 25 32 43 50 51 43 33 34 39 42 53 63 62 59 54 55 59 52 54 67 54 35 36 40 47 56 56 58 58 57 65 60 49 63 76 69 62 66 85 101 96 86 86 86 88 91 91 90 89 87 86 84 85 87 90 94
86 80 81 81 69 63 72 77 71 67 59 48 45 38 28 23 19 19 23 21 16 18 24 23 19 18 16 15 20 19 16 22 28 32 43 53 51 41 35 37 40 43 50 50 46 52 58 63 68 64 71 85 70 58 72 76 70 70 70 70 67 63 69 69 63 73 76 68 72 82 91 100 95 84 86 88 88 92 92 89 88 87 84 82 84 88 91 94
92 86 81 76 73 73 76 74 71 74 69 55 47 40 33 30 22 16 20 24 18 16 22 23 19 21 23 22 27 27 19 22 26 26 36 49 52 46 41 42 40 39 47 46 40 52 63 65 69 72 76 81 72 69 80 81 80 86 84 77 74 72 71 72 79 85 80 79 92 95 92 98 98 90 90 91 90 93 93 91 91 89 85 84 86 89 92 96
93 87 78 75 78 78 77 72 64 68 67 53 43 39 34 32 27 22 22 24 20 18 22 23 18 25 31 30 37 41 31 28 31 33 41 48 48 44 39 41 41 39 45 44 40 54 69 70 71 72 69 66 62 64 69 72 79 85 82 79 82 81 77 83 91 89 79 81 91 91 90 97 100 97 96 93 91 91 90 89 90 90 88 88 89 92 95 98
89 84 71 69 77 78 76 72 61 58 58 47 40 39 36 33 32 30 25 20 19 20 26 31 25 24 26 28 42 48 35 36 44 46 52 53 48 48 48 44 41 41 47 47 44 53 67 70 67 66 66 60 55 62 69 72 76 78 78 80 84 86 88 93 97 91 83 85 87 90 95 99 100 99 97 93 91 89 88 89 90 90 90 91 93 95 97 99
83 83 72 67 72 71 64 56 50 50 47 41 41 39 38 38 36 30 23 26 31 24 26 40 35 22 21 24 38 47 43 50 60 56 56 56 51 56 66 64 51 42 45 52 53 53 63 70 63 59 62 59 59 68 72 74 82 86 84 80 79 86 91 93 95 93 90 92 93 94 98 100 98 95 91 90 89 88 90 91 91 92 92 93 96 98 99 100
85 86 79 73 75 72 59 43 39 45 40 37 43 39 33 38 37 28 22 32 47 38 28 39 36 25 27 28 32 45 49 55 64 59 53 55 56 59 68 75 67 49 45 53 54 53 61 65 58 57 63 65 68 75 75 79 87 91 90 86 81 84 89 93 95 93 93 96 96 96 99 100 95 88 87 89 90 90 91 92 93 95 94 94 97 99 100 100
84 84 80 83 87 73 52 35 34 43 42 39 43 39 34 34 32 31 28 26 36 38 30 35 39 33 36 37 37 43 43 42 47 46 40 47 54 50 50 57 60 57 55 53 50 54 62 60 56 60 70 76 78 76 76 78 79 84 94 95 88 87 92 94 94 93 95 96 95 95 100 101 93 86 88 92 92 93 94 94 95 97 96 97 98 99 100 100
81 86 83 87 86 58 34 32 36 39 39 37 38 37 35 31 25 32 39 26 19 26 26 29 35 37 42 47 44 39 34 30 31 31 28 32 34 31 30 33 37 48 56 53 50 55 55 54 58 63 72 84 83 76 77 80 81 88 96 94 89 88 89 91 91 90 91 91 94 99 99 95 89 85 90 94 93 95 98 97 98 99 99 99 99 99 99 99
Wind_Speed
7 6 6 6 6 7 7 7 8 8 9 10 10 10 9 9 9 9 9 9 10 10 10 11 12 12 13 13 12 14 15 15 14 16 20 13 9 13 13 12 10 8 7 8 10 11 12 13 15 12 7 9 12 14 14 14 19 13 5 4 6 5 5 6 3 2 3 2 4 6 9 6 3 5 5 2 5 5 14 21 18 17 13 9 11 16 23 24
7 7 6 6 7 8 7 7 8 8 9 10 11 11 10 10 10 9 9 9 10 10 10 11 12 12 13 12 12 15 16 16 16 21 21 11 11 14 12 12 11 10 8 9 13 13 12 12 11 9 9 14 14 15 14 12 16 10 3 4 6 5 8 10 4 3 5 4 3 5 5 3 2 5 4 3 3 5 8 17 20 22 17 15 18 20 23 25
8 7 7 7 7 8 8 8 8 8 9 10 11 11 11 10 10 9 9 9 10 10 10 11 11 12 12 12 12 15 16 16 18 22 18 11 14 14 13 14 12 13 11 10 12 11 10 9 8 9 14 15 15 19 16 12 13 10 6 4 6 6 8 14 6 9 11 9 6 7 6 4 5 7 3 4 9 5 6 11 15 21 21 20 21 23 24 25
9 8 8 8 8 8 8 9 8 9 9 10 11 11 11 11 10 10 9 9 9 10 10 11 11 11 11 10 12 14 15 15 14 15 11 9 13 12 12 14 13 14 11 11 13 12 10 12 12 13 15 13 17 20 13 13 12 9 9 5 6 8 8 12 7 12 12 12 8 8 8 8 9 6 2 4 9 6 8 17 18 20 22 20 22 24 26 25
9 9 9 9 9 9 9 9 9 9 9 10 11 12 12 11 11 10 9 8 8 9 9 10 11 11 11 9 11 13 11 7 5 5 3 4 7 9 10 11 12 12 11 14 16 15 14 16 17 16 14 10 12 13 11 17 15 6 9 11 11 11 9 10 7 9 7 9 4 5 5 8 9 5 3 2 5 2 9 21 21 19 21 20 23 25 25 26
9 9 9 9 9 10 10 10 10 10 10 10 11 12 12 11 11 10 9 8 8 9 9 10 10 11 10 8 10 12 7 1 1 0 1 1 1 6 7 8 10 11 14 17 17 15 13 14 16 15 11 7 8 8 10 18 16 5 7 11 14 15 10 13 11 4 6 6 3 3 5 10 7 5 5 4 7 3 13 20 18 16 18 21 24 24 24 25
9 9 9 10 10 10 11 11 11 11 11 11 11 11 12 12 11 10 9 8 8 8 8 9 10 11 10 8 9 10 10 10 5 2 3 2 1 5 5 8 9 11 18 21 18 14 10 13 16 14 8 5 8 10 14 18 17 9 6 8 13 16 13 15 12 1 4 3 1 5 8 10 5 5 6 9 11 4 16 17 18 19 19 21 24 24 24 24
9 9 9 9 10 10 11 12 12 12 12 12 11 11 12 12 11 11 9 8 8 8 8 9 9 11 11 8 7 9 13 14 7 5 7 4 2 4 5 7 9 13 20 22 17 11 9 13 16 14 7 5 11 11 13 14 12 8 7 8 12 16 15 14 13 9 6 0 2 7 7 8 8 7 6 12 13 7 20 19 21 22 20 21 22 23 23 23
9 9 9 9 10 10 10 12 13 14 13 13 12 11 11 11 11 11 9 8 7 8 8 8 9 10 10 9 7 7 10 7 2 5 7 6 5 5 5 6 10 15 21 21 14 9 11 14 16 15 9 10 15 11 11 9 6 9 10 11 10 13 16 14 12 12 7 3 5 6 6 9 11 10 6 13 16 7 22 22 22 24 22 20 20 21 21 21
10 9 9 9 10 10 10 11 13 14 14 14 12 11 11 11 12 11 9 8 7 8 8 9 10 9 9 8 5 3 5 3 3 6 8 9 9 9 8 8 10 15 22 20 12 10 13 14 14 16 13 13 12 10 12 9 6 9 10 11 11 13 14 13 11 9 9 9 8 5 4 9 12 9 4 11 16 10 22 23 22 24 23 20 19 20 18 19
11 10 9 9 10 10 10 11 13 15 15 14 13 12 11 12 12 10 9 8 7 8 8 9 10 9 8 7 7 6 5 5 5 6 8 10 11 10 10 9 10 15 20 17 10 9 12 14 14 14 10 5 7 10 12 12 11 10 7 5 10 11 11 11 10 11 10 6 6 5 4 9 11 7 6 12 16 14 21 25 23 23 22 18 17 18 17 16
11 11 10 10 10 10 10 11 13 15 16 14 12 12 11 12 11 10 9 7 8 8 8 9 9 9 8 10 16 12 8 6 3 7 8 7 7 7 9 10 10 14 16 14 10 8 11 14 13 11 7 5 4 6 8 13 14 14 10 4 6 6 7 10 9 12 9 1 6 6 4 7 7 8 15 16 16 18 18 27 24 22 22 18 17 18 15 13
12 12 11 11 11 11 11 11 12 14 16 14 12 11 11 12 11 10 9 8 8 8 8 9 9 9 8 12 15 9 7 7 4 9 9 5 5 9 11 9 8 12 13 11 10 9 12 13 11 9 10 9 5 6 11 14 12 10 7 3 4 5 5 10 11 13 9 7 12 7 2 6 6 11 20 20 18 20 15 27 27 24 24 21 19 17 15 14
12 12 12 12 11 12 12 12 12 13 15 14 12 11 11 10 10 10 10 9 8 8 8 8 8 8 8 14 12 6 9 9 7 12 10 5 7 10 12 10 9 10 8 10 11 8 7 7 9 9 10 10 10 12 13 11 8 4 3 3 2 2 7 9 10 11 9 13 17 10 2 7 7 10 19 20 20 23 16 26 28 25 27 25 22 17 15 15
12 12 13 13 12 13 13 13 12 13 14 14 13 11 10 10 10 10 10 9 8 7 7 6 8 7 8 16 14 6 11 12 12 15 12 9 11 11 12 13 12 11 8 11 9 5 3 2 4 6 10 12 12 10 6 4 4 2 1 4 2 4 8 9 9 11 10 11 15 12 2 7 7 11 21 22 21 25 16 26 29 25 27 26 23 18 16 15
12 12 13 14 13 13 14 14 13 12 13 14 13 11 10 10 10 10 11 9 7 6 4 3 4 5 6 11 9 6 12 17 15 14 14 14 15 14 13 13 13 12 10 10 7 5 5 5 6 7 10 10 6 5 4 4 4 2 3 4 4 5 7 7 8 14 16 9 11 11 2 6 7 11 22 25 26 28 16 26 27 25 27 25 22 20 17 15
12 12 13 14 14 14 15 14 13 12 12 13 13 10 9 10 11 11 10 8 7 5 4 2 1 6 9 6 6 10 17 21 17 15 15 15 16 14 13 13 13 12 10 9 9 8 6 7 7 6 7 5 3 4 3 4 5 3 3 5 5 7 6 6 6 11 17 8 7 8 3 7 9 11 21 18 10 21 17 23 26 26 26 25 24 22 18 17
12 12 13 14 15 15 15 14 13 11 12 12 11 9 9 11 12 12 10 7 4 2 4 5 3 3 9 11 12 14 18 20 16 16 16 15 17 15 13 14 12 12 11 8 10 10 7 7 6 3 3 4 4 3 4 5 5 5 5 5 6 8 7 7 5 5 12 8 7 8 5 9 11 10 16 8 13 17 11 13 24 28 28 27 25 23 21 20
12 12 12 14 15 15 15 14 12 11 11 10 10 9 9 10 11 11 10 8 8 5 2 9 14 5 5 10 15 12 16 19 15 16 18 17 18 17 15 14 13 13 11 6 7 12 8 4 5 3 3 5 6 6 6 7 9 10 7 5 6 5 6 8 6 8 11 7 7 8 6 8 10 9 10 3 10 15 10 11 20 27 28 26 26 25 23 22
12 12 12 14 15 15 14 13 12 10 10 9 9 8 6 6 6 3 6 12 16 14 8 12 24 18 11 11 10 6 14 18 16 18 19 18 18 17 17 17 15 12 8 4 6 12 10 4 4 6 6 7 8 9 10 9 10 11 7 4 4 4 6 8 4 11 9 5 5 7 8 7 7 8 8 6 2 6 12 14 16 24 26 26 28 27 26 24
12 12 13 14 15 15 14 13 11 9 9 9 9 7 3 2 3 2 4 11 18 21 21 19 22 24 22 17 11 6 17 16 16 19 18 20 19 14 14 15 10 6 7 7 7 10 10 5 5 8 9 10 11 9 10 11 11 9 7 5 5 3 6 9 2 10 6 6 4 4 4 4 5 6 10 10 6 5 9 13 14 19 27 29 30 29 28 25
12 13 13 13 14 14 13 12 10 8 8 8 10 10 5 2 6 7 7 9 17 21 23 25 23 25 28 25 18 10 17 13 14 18 19 22 19 12 12 11 6 4 7 7 5 5 6 5 9 11 10 10 12 10 9 11 11 8 6 4 6 4 5 9 3 6 3 4 4 2 4 2 6 6 9 10 9 10 13 16 19 20 26 30 30 29 28 26
14 13 13 13 13 13 12 11 8 7 7 7 10 11 6 4 7 9 10 8 15 20 22 26 26 28 30 28 20 13 15 12 12 18 22 22 20 18 13 9 7 6 7 7 6 4 4 7 11 11 10 9 10 10 8 9 8 5 3 2 5 5 3 6 2 1 1 1 4 4 4 0 4 6 7 11 14 14 18 17 17 20 27 31 32 33 32 31
14 13 13 12 12 12 11 8 5 3 4 6 7 6 3 4 9 9 10 6 9 14 21 26 26 27 28 24 16 13 13 11 12 17 24 24 21 20 13 10 9 6 7 10 10 8 6 10 13 11 11 10 9 9 8 6 4 2 1 1 3 5 5 6 5 3 3 2 3 6 3 3 3 5 6 10 14 13 15 15 15 15 22 30 32 33 35 34
14 13 12 11 11 11 9 5 3 2 0 3 2 5 2 4 6 7 7 4 5 9 14 18 22 24 26 22 15 16 14 11 14 15 25 28 22 16 11 12 11 6 8 12 10 9 9 11 14 13 12 12 10 9 7 5 2 2 2 2 4 7 9 9 10 7 4 4 2 5 1 5 4 7 8 8 8 10 12 10 14 18 16 26 32 33 36 36
13 12 10 10 10 9 7 4 5 3 1 1 6 7 3 3 3 6 4 2 3 4 4 9 16 16 20 23 21 18 11 11 20 19 23 30 25 17 10 9 8 6 9 10 6 5 7 10 10 10 13 14 11 8 6 6 5 1 2 4 5 6 9 9 9 7 2 3 5 2 4 4 5 5 7 6 6 9 11 8 13 23 21 17 29 36 37 38
13 11 10 9 9 9 7 5 5 5 2 5 7 3 1 3 5 5 1 1 4 4 6 8 12 11 15 21 20 14 4 9 20 23 23 29 27 20 11 5 6 7 8 6 4 4 7 10 9 8 9 8 6 5 4 8 5 2 4 6 7 8 10 10 8 7 3 3 5 2 3 2 4 5 6 6 7 8 8 9 11 15 8 7 13 27 28 31
12 11 10 8 8 9 7 7 7 6 1 6 8 3 4 6 4 2 1 0 2 5 7 6 8 10 14 18 20 15 9 9 12 17 24 27 24 18 10 7 6 7 9 6 4 4 6 9 9 8 5 3 4 4 5 7 4 4 6 9 9 7 8 5 3 4 3 2 5 5 3 2 4 5 6 6 8 8 4 5 6 6 16 27 20 10 9 18
11 11 10 8 8 8 8 9 9 5 0 3 5 2 6 6 2 1 1 1 3 4 6 7 6 8 14 16 17 17 16 11 7 14 23 25 22 15 7 11 10 6 9 7 5 5 5 9 11 8 5 4 4 4 5 6 4 6 8 9 7 6 4 3 3 2 4 2 4 5 2 3 5 4 5 4 5 6 2 6 10 16 24 28 27 21 14 6
11 11 10 8 8 9 10 10 6 4 3 1 0 3 4 3 0 2 1 2 3 3 6 8 7 10 13 10 10 13 14 11 7 16 21 21 22 15 7 12 12 6 6 6 7 9 9 9 11 6 3 6 7 5 5 4 5 7 8 7 5 5 3 1 3 3 3 2 4 6 3 3 5 5 4 3 1 1 2 6 9 14 22 25 26 26 24 20
12 11 10 10 8 10 12 8 4 4 4 1 3 4 1 0 0 2 2 2 2 3 5 4 6 11 13 9 7 9 10 10 6 14 13 12 14 11 5 7 7 3 3 3 5 10 11 8 5 2 3 5 7 6 6 6 7 5 3 2 0 3 3 3 4 3 0 4 5 6 6 4 4 4 2 4 6 8 8 7 7 9 15 21 24 24 24 25
11 11 11 11 11 13 11 7 7 5 7 5 2 4 1 1 1 2 2 1 0 4 5 6 8 9 12 10 7 9 9 8 5 10 8 6 6 6 4 4 3 1 3 3 3 7 8 6 2 3 7 7 3 2 2 3 6 2 3 4 2 1 2 1 1 1 2 5 6 7 7 6 3 2 2 6 9 11 10 8 9 9 13 20 24 24 23 23
11 13 12 12 14 14 11 10 9 7 8 6 3 3 1 2 2 4 5 3 1 5 5 9 12 10 12 10 7 10 10 6 7 8 5 7 5 5 7 7 6 4 3 4 3 3 3 4 3 4 6 3 5 4 1 2 4 4 3 3 3 2 0 1 3 3 3 5 7 5 2 2 2 2 3 5 7 10 13 14 16 17 17 20 23 25 25 24
11 13 13 13 15 14 13 14 11 7 7 4 1 2 2 1 3 5 6 6 3 6 5 9 13 11 12 10 7 11 10 6 9 9 5 6 5 4 7 9 9 5 3 3 2 2 2 3 5 4 3 5 5 4 4 3 4 4 5 5 5 4 3 3 3 4 4 4 3 2 2 1 3 3 4 6 10 13 17 18 21 22 20 20 23 27 28 26
11 12 13 14 13 11 13 16 14 9 7 2 2 1 2 2 3 2 4 6 4 6 2 7 7 3 6 7 6 9 10 7 9 10 6 6 6 4 5 7 10 8 3 2 2 2 3 5 7 10 9 8 7 6 6 3 3 3 5 6 5 5 4 3 4 4 3 1 2 0 1 1 2 1 3 8 12 16 19 19 20 19 18 20 22 24 25 22
11 10 11 11 9 7 11 17 16 12 8 2 2 2 3 3 3 2 2 4 5 3 2 7 3 1 2 3 4 6 10 8 9 9 6 6 7 7 6 5 9 10 5 4 3 2 2 4 5 10 11 9 10 9 9 7 3 2 3 5 6 7 5 3 5 3 3 3 2 2 2 2 2 2 6 9 11 13 15 15 16 16 17 19 19 19 19 18
11 8 10 9 6 6 10 15 16 14 9 3 2 2 3 4 7 6 2 5 7 5 3 4 1 2 2 3 4 5 6 5 7 5 3 6 6 6 8 7 10 12 11 7 2 2 5 4 3 6 7 8 15 15 11 11 9 2 2 5 5 6 4 3 1 2 2 2 3 3 4 2 2 1 5 9 11 11 10 10 12 16 19 19 18 19 21 21
8 6 10 8 8 8 8 12 15 14 8 4 3 4 3 4 10 6 6 6 7 5 3 2 2 4 3 3 4 4 6 4 5 4 2 5 3 1 1 4 10 13 15 14 5 3 4 2 5 5 5 6 12 12 6 8 11 6 4 5 2 4 3 2 2 1 1 2 3 2 4 3 2 1 4 9 11 9 8 9 11 14 17 17 18 20 23 23
5 3 6 4 8 10 9 12 15 13 6 3 2 3 3 6 10 2 8 4 5 3 3 3 1 3 3 3 3 2 7 6 5 5 2 2 2 3 7 6 0 1 3 8 5 4 4 2 3 6 5 3 4 5 3 5 6 6 5 4 0 4 3 2 3 3 3 3 2 0 3 2 2 3 6 8 9 7 7 8 9 11 14 17 18 18 20 22
2 2 2 5 10 12 12 13 13 9 5 3 3 5 5 7 4 6 10 4 4 2 2 4 5 4 5 3 5 2 2 3 3 5 3 2 1 1 7 10 5 6 9 6 5 3 1 3 3 5 2 2 2 3 5 4 3 4 4 3 2 1 3 3 2 2 4 3 2 2 2 1 2 4 7 8 8 7 7 7 6 8 13 18 21 22 23 24
4 2 2 8 11 14 15 13 9 6 3 3 4 5 7 6 1 7 7 3 3 3 1 3 5 3 4 5 6 5 2 3 2 3 3 3 3 2 7 11 6 4 6 7 7 5 2 2 3 4 3 2 3 5 7 5 2 2 2 4 4 3 3 3 3 3 3 3 2 4 4 0 2 5 6 8 9 8 9 8 8 11 16 19 22 25 25 25
3 3 3 10 9 14 16 8 5 4 4 4 6 8 7 6 0 5 4 2 1 3 2 2 4 3 3 4 6 6 4 4 4 3 3 4 5 3 7 14 13 7 5 2 3 3 1 1 2 1 2 3 3 1 6 4 1 5 6 3 2 1 2 3 2 4 2 2 2 4 4 2 3 5 5 7 9 12 13 13 12 14 18 21 22 24 24 24
1 4 5 10 9 13 12 2 4 5 4 6 11 12 8 5 3 4 3 2 2 2 0 2 3 3 3 4 4 5 4 4 4 4 3 3 5 5 9 16 15 8 5 1 3 5 4 1 2 2 3 4 6 6 3 5 7 6 6 7 5 2 2 4 1 2 2 2 1 4 2 1 3 7 8 9 11 13 16 18 16 15 18 20 21 21 22 23
2 5 5 9 11 12 7 2 2 4 4 5 8 9 4 4 4 3 2 0 1 1 2 2 3 2 2 3 4 4 4 4 4 6 5 3 3 8 12 16 13 8 4 2 2 4 3 2 2 3 3 5 6 7 7 8 8 4 4 8 7 5 3 3 2 4 3 4 2 4 2 2 5 7 9 11 11 11 15 20 20 19 18 19 18 19 21 22
3 2 3 7 12 11 7 4 2 2 3 4 6 5 3 2 1 2 5 6 3 2 3 2 3 3 3 2 4 6 5 3 2 4 5 3 2 7 12 14 11 7 5 6 5 3 1 1 2 4 3 1 1 1 2 3 4 3 6 10 9 8 7 3 3 4 3 3 4 4 2 4 7 9 10 10 10 11 14 19 22 22 20 18 18 20 20 21
2 0 1 3 9 9 9 9 7 4 3 4 3 4 3 1 1 2 5 7 5 3 4 2 4 5 5 3 4 5 6 5 5 3 3 4 3 4 9 13 11 7 6 7 8 4 2 3 3 5 5 4 4 3 2 2 3 4 7 10 9 8 7 6 4 2 3 3 4 2 3 7 8 9 9 9 10 10 11 16 19 20 20 19 19 19 20 21
2 1 1 2 4 6 7 11 8 4 6 6 2 2 4 4 1 2 2 4 6 7 4 2 2 2 3 2 4 4 6 6 8 7 6 5 4 4 8 9 7 7 6 6 7 5 2 3 4 4 4 4 5 6 8 9 7 7 6 8 9 9 8 9 6 1 2 4 1 2 4 8 7 8 9 9 9 9 10 14 16 18 19 19 18 19 20 22
1 3 3 0 2 3 4 8 8 6 10 8 2 2 3 3 2 2 1 2 4 5 2 1 2 4 2 3 3 1 3 5 6 6 5 4 3 4 5 6 5 6 7 6 6 4 3 3 2 3 3 2 4 9 12 12 10 9 10 10 10 11 10 9 7 5 4 5 3 3 8 9 7 8 9 8 9 10 10 14 16 17 18 18 18 20 21 22
3 3 5 4 2 3 6 11 11 7 6 3 1 2 3 1 2 3 1 1 1 2 3 2 2 5 3 6 5 2 2 2 3 4 3 3 4 3 2 4 4 6 6 3 4 4 3 1 1 2 2 1 4 10 12 13 12 11 13 13 11 11 11 10 9 10 9 9 8 10 12 10 7 7 8 10 12 13 12 14 16 17 17 17 18 20 20 20
3 1 5 7 6 9 13 13 8 4 2 3 3 1 2 1 1 1 3 2 1 3 5 3 3 3 5 8 7 4 4 5 3 1 1 2 3 2 1 1 1 3 4 2 2 4 3 1 2 3 3 2 7 13 13 13 14 12 13 13 11 9 10 11 10 9 8 8 9 11 10 7 6 8 10 13 14 14 14 14 16 17 17 17 18 19 18 19
5 4 6 5 4 9 11 7 4 3 2 1 1 1 1 3 2 1 2 5 5 4 1 2 5 7 6 7 7 6 6 6 4 2 3 2 1 3 3 4 5 1 2 1 1 2 2 1 1 3 5 2 5 12 12 11 13 12 11 12 11 8 8 9 9 8 7 3 6 8 6 3 4 8 11 13 14 15 15 14 15 16 17 18 18 18 18 19
5 7 7 5 4 7 6 4 3 4 3 2 4 2 2 1 0 2 3 3 2 3 6 7 8 5 4 6 7 7 8 8 9 9 10 9 6 5 5 3 6 5 3 2 2 1 2 2 1 3 5 1 4 10 10 6 6 6 6 8 8 6 7 8 9 11 10 5 3 4 4 3 5 8 10 11 12 14 14 15 15 16 17 18 18 17 17 19
Wind_Direction
258 259 266 270 272 274 277 283 285 284 283 280 278 276 274 272 270 271 272 274 276 278 280 284 284 286 286 287 289 286 282 276 269 257 256 256 234 236 238 238 242 241 239 215 194 186 191 196 197 186 190 236 242 245 243 249 253 241 213 215 247 250 241 264 258 165 134 92 57 48 4 11 40 18 51 52 251 198 107 96 96 94 98 139 157 160 164 167
260 259 259 263 268 273 278 279 280 282 282 280 278 276 274 272 271 269 269 271 272 276 279 281 282 283 284 288 292 290 283 281 277 258 252 250 233 235 237 243 243 241 240 208 196 186 186 193 193 189 214 233 232 233 233 237 243 231 187 216 230 238 245 268 292 87 88 72 42 77 52 15 29 8 5 8 292 235 118 102 105 106 112 133 149 162 168 170
261 263 260 259 263 270 275 277 278 280 280 281 279 277 275 273 273 271 270 270 271 276 280 281 283 284 286 291 296 293 290 294 285 266 260 248 235 235 234 240 241 238 234 208 198 183 183 199 193 202 218 229 234 232 227 223 232 218 212 239 239 246 260 279 322 65 60 42 16 37 37 346 344 347 3 0 337 342 111 121 111 112 127 141 152 164 169 174
262 262 261 262 264 268 273 276 276 277 280 281 280 279 277 275 274 272 272 272 274 279 283 285 284 285 288 296 300 297 304 309 289 271 266 237 225 227 229 232 232 232 222 195 187 177 199 230 226 213 215 226 234 236 230 209 211 199 206 231 250 267 279 287 356 66 61 48 22 350 347 330 319 316 47 3 330 1 121 143 135 131 143 153 160 167 170 172
264 263 264 267 270 272 273 274 274 275 277 278 280 279 278 277 275 273 273 274 276 280 285 287 286 288 289 296 300 300 314 328 290 265 237 202 210 212 219 220 222 224 207 185 183 188 207 230 236 225 216 231 236 239 240 211 200 184 222 234 243 263 274 289 351 65 74 59 27 322 321 307 306 313 29 319 273 278 154 152 146 148 158 165 165 168 168 168
264 265 266 270 275 279 279 278 276 275 275 277 279 279 279 278 276 276 276 275 276 278 283 286 289 289 287 295 298 296 300 249 168 192 167 71 201 203 209 214 217 212 193 182 185 195 207 226 238 233 214 232 249 245 249 224 209 213 250 243 247 254 259 285 305 72 91 67 43 340 315 309 326 348 346 293 271 210 163 157 149 154 162 168 166 166 169 173
260 262 269 274 278 283 284 284 281 279 278 278 278 279 280 279 278 277 275 275 275 278 281 286 288 287 288 293 292 286 268 242 215 202 242 281 247 209 222 225 217 203 187 180 185 188 205 230 233 237 222 224 248 249 253 235 218 226 256 252 262 265 259 272 282 65 86 89 2 309 308 314 340 351 329 296 289 180 159 156 148 157 165 173 170 168 176 183
256 260 267 274 280 284 286 287 285 284 282 282 282 280 280 280 279 276 275 276 275 279 280 281 283 285 290 294 305 293 267 253 225 214 228 216 214 217 235 233 211 201 188 179 180 180 216 236 230 235 229 222 241 243 251 243 220 220 253 256 265 275 274 279 288 294 299 119 271 273 267 284 289 295 289 277 285 157 153 154 150 160 164 171 174 172 183 189
258 262 266 272 279 283 288 290 289 287 285 285 285 283 282 281 279 276 275 275 275 278 275 276 275 278 288 293 318 303 269 265 178 193 209 202 224 232 255 245 207 198 189 182 180 190 234 239 230 234 235 249 252 254 273 275 218 201 229 249 251 265 274 284 285 280 283 251 237 240 243 258 254 261 254 259 275 173 152 155 157 163 162 167 173 177 187 190
258 260 267 274 279 284 289 292 291 288 286 286 288 286 284 280 278 276 275 276 277 275 271 270 265 269 281 286 312 288 253 263 174 200 220 225 236 241 254 245 206 194 189 190 191 204 237 237 227 234 243 261 269 279 288 283 240 212 225 248 257 263 272 282 283 273 266 244 228 215 242 262 252 249 221 238 255 197 153 156 166 163 161 170 175 182 190 191
260 262 268 275 280 284 288 293 292 288 286 286 289 288 284 279 278 277 276 278 274 270 266 262 261 264 266 257 251 229 196 196 207 241 248 234 237 244 246 227 201 192 188 192 202 218 236 236 239 244 244 275 299 286 283 282 284 284 283 272 266 274 287 294 299 291 279 236 216 231 254 273 269 255 236 236 243 218 166 159 170 162 159 172 179 187 193 197
263 267 270 275 281 285 289 294 292 289 285 285 289 288 282 278 277 278 276 276 273 270 264 259 259 258 257 251 245 228 185 183 228 276 268 247 234 223 222 211 192 186 181 184 206 237 239 241 259 267 276 330 314 281 301 304 294 285 291 305 282 290 286 272 269 269 277 229 212 233 266 272 260 242 250 250 249 242 185 157 166 164 162 173 179 187 196 204
267 271 275 278 283 288 292 294 293 289 285 285 288 284 279 277 279 280 275 273 272 270 265 258 256 252 253 257 245 213 178 183 207 244 252 267 215 184 189 192 188 180 177 198 225 249 244 247 269 289 313 316 292 308 318 303 285 265 264 274 287 314 275 244 238 239 238 236 222 200 257 267 246 234 240 241 243 251 201 158 165 165 164 175 179 185 194 202
270 276 279 280 284 290 293 295 295 290 286 287 286 281 278 277 277 276 273 273 273 274 270 258 252 239 236 254 252 219 207 203 211 222 227 245 194 173 177 183 205 198 193 241 263 272 241 242 262 279 302 287 281 312 317 299 282 265 267 271 244 268 269 243 224 219 209 227 215 184 233 257 258 256 252 247 232 242 217 161 162 164 164 173 177 186 195 201
272 278 281 282 285 290 293 294 294 292 288 286 283 279 276 275 274 271 269 271 273 275 269 252 243 227 243 268 266 228 206 206 215 214 211 216 195 185 184 185 208 217 229 253 265 273 241 259 271 265 272 269 279 296 299 297 286 243 237 290 241 203 258 256 225 206 199 211 183 157 240 258 263 264 263 263 237 237 213 158 160 163 166 172 175 183 193 198
275 279 281 284 286 290 293 293 295 294 290 285 282 280 276 274 268 264 266 270 273 271 253 233 243 236 262 280 268 221 204 201 201 203 207 207 198 196 190 190 205 212 231 242 240 254 259 265 269 264 263 268 275 255 268 301 289 230 184 242 242 224 253 268 243 204 196 195 150 143 185 261 273 263 266 274 246 227 178 150 163 164 171 175 172 179 184 187
278 280 282 286 288 291 293 293 296 294 289 285 282 278 275 273 266 263 267 269 267 254 220 160 25 269 255 255 250 232 215 207 201 200 205 203 200 198 188 192 201 206 221 230 232 244 250 237 240 260 256 256 251 226 251 265 272 276 210 222 237 242 250 269 268 198 185 180 141 143 157 245 268 273 280 299 234 195 149 145 165 166 176 178 174 180 182 186
279 279 283 287 290 292 292 292 294 293 288 285 284 279 272 270 269 266 263 256 243 205 218 198 148 283 256 238 242 231 210 205 204 201 203 201 200 197 188 192 195 201 210 221 226 225 227 215 203 238 254 250 251 218 204 218 237 237 211 215 238 249 249 254 273 180 173 166 139 149 177 244 261 274 285 334 111 143 132 149 167 172 180 178 178 185 186 192
279 281 285 289 292 292 290 289 291 292 288 285 283 281 277 275 275 271 250 217 190 167 193 194 184 194 298 254 247 234 207 198 190 192 199 197 198 198 193 190 192 199 198 195 209 205 203 198 191 224 249 235 230 220 218 222 231 238 231 213 225 257 267 255 231 174 174 161 137 157 186 238 257 272 287 317 128 150 173 190 176 173 179 177 178 187 192 195
281 285 288 292 293 290 287 287 288 291 291 288 283 278 281 286 286 267 210 210 217 223 241 216 202 218 274 270 257 213 184 187 184 190 195 191 194 205 204 191 187 201 200 173 191 196 188 179 206 214 222 230 232 229 235 249 250 257 275 262 260 296 289 285 206 165 160 137 163 186 195 229 264 282 300 308 267 179 194 211 191 171 174 178 178 187 197 202
285 289 290 295 293 288 285 283 285 292 294 290 284 273 254 312 345 3 238 245 255 251 254 252 226 233 260 265 265 178 153 170 189 189 192 190 191 206 211 195 181 196 214 207 204 196 183 185 224 219 221 229 236 231 230 253 265 269 286 297 311 315 283 303 243 177 142 98 198 195 175 254 308 300 301 312 304 250 215 213 206 176 167 176 183 189 197 202
291 290 295 298 291 287 281 280 286 287 288 281 277 269 246 22 9 333 309 276 275 267 258 261 246 242 254 261 264 210 157 168 193 186 188 190 190 195 193 190 194 195 204 217 222 195 183 212 223 218 223 226 235 238 221 234 250 262 278 296 301 295 296 315 292 186 116 91 213 168 112 286 315 303 303 312 299 277 254 223 213 192 167 171 181 184 189 192
294 295 301 296 288 286 277 281 289 286 293 278 275 270 249 26 11 328 321 292 280 274 255 251 244 239 247 256 257 214 177 181 189 187 186 183 187 193 184 179 210 210 189 206 212 184 193 222 218 217 229 230 235 244 228 227 240 240 233 251 276 275 294 308 312 210 322 143 178 126 102 238 305 307 304 288 281 286 279 255 231 206 182 182 183 181 184 187
296 299 302 293 287 283 276 288 291 301 321 271 277 285 245 19 9 333 317 288 279 274 252 241 234 231 236 245 245 211 203 204 198 191 181 180 187 193 197 189 201 223 202 201 203 206 227 218 206 209 230 236 236 248 239 218 238 278 216 186 278 291 288 286 301 317 321 313 134 107 46 327 270 269 280 275 273 280 279 273 268 241 195 190 193 191 192 196
298 301 299 292 284 278 279 287 222 140 23 233 7 25 36 26 3 325 315 283 263 267 256 235 221 223 223 227 229 208 208 219 225 207 179 182 188 187 209 203 192 222 215 210 207 211 240 226 203 200 217 230 231 242 234 175 155 347 334 233 255 291 294 298 314 332 6 328 284 117 56 302 264 233 244 262 270 277 278 268 264 263 222 190 192 197 199 203
300 299 294 289 282 277 274 240 185 169 146 106 39 31 37 30 302 287 306 307 270 243 225 196 196 210 211 213 216 203 197 213 227 227 188 184 190 189 208 204 188 214 212 216 221 205 236 236 222 206 206 217 221 230 214 142 117 24 280 250 234 250 270 282 296 305 342 273 271 135 148 267 292 259 245 250 253 258 270 270 246 250 251 210 192 197 200 202
299 295 290 287 280 276 263 220 201 218 201 51 35 22 267 285 274 271 266 325 274 191 152 163 175 190 195 194 193 182 192 207 212 229 204 182 192 200 211 207 183 213 218 215 224 211 214 223 237 234 213 203 198 220 188 129 122 194 232 254 244 229 237 248 254 257 245 248 286 343 119 248 286 269 264 269 272 266 266 280 261 240 269 45 156 190 197 202
297 290 286 282 274 274 269 252 236 220 214 46 63 75 280 278 269 238 127 334 232 156 143 157 165 183 179 170 172 179 219 206 186 222 208 184 192 200 208 234 210 214 225 211 217 231 206 206 227 240 233 181 166 204 169 133 150 213 221 238 249 240 224 221 243 268 290 310 309 332 17 304 274 268 286 277 264 285 334 0 1 57 60 53 69 129 176 202
293 285 283 277 264 260 254 250 237 203 222 43 85 44 299 281 266 95 79 177 199 147 153 160 148 178 177 163 174 195 225 230 179 198 194 181 195 202 205 238 243 246 239 219 219 246 226 205 209 219 215 182 195 210 157 142 188 215 227 239 262 275 240 132 88 6 352 358 278 292 289 255 281 288 296 285 241 256 3 58 46 56 58 50 55 64 67 125
289 283 281 274 253 242 242 242 223 177 191 220 335 296 289 269 283 76 90 223 225 159 152 153 142 176 181 165 183 201 223 247 202 177 178 175 192 209 228 240 246 268 257 229 226 247 253 225 209 215 209 177 189 200 171 189 229 217 220 231 265 295 287 72 74 71 11 313 249 263 247 217 273 291 289 301 274 178 71 57 47 51 52 49 54 60 63 74
283 283 278 271 251 241 247 233 167 142 153 141 288 264 245 283 59 118 170 230 248 146 137 152 160 171 173 167 185 196 216 251 202 161 172 173 184 205 238 248 251 281 291 267 245 245 248 243 219 223 265 211 186 187 176 203 242 236 193 170 313 331 4 18 10 53 261 267 256 263 269 248 248 278 326 11 41 57 59 57 49 43 49 53 57 58 63 71
282 282 272 268 255 241 237 197 153 153 154 148 230 232 206 112 146 221 235 326 144 174 165 175 178 171 173 182 190 183 202 241 191 159 172 157 160 191 188 207 212 193 286 269 247 243 235 235 179 164 248 244 174 157 167 217 239 233 75 80 96 323 15 37 309 258 212 249 238 228 253 256 213 230 347 38 51 61 70 72 60 48 45 51 55 53 53 61
280 278 268 269 261 245 226 184 168 172 165 154 189 225 206 107 177 226 243 291 161 191 195 170 173 178 175 187 199 181 193 217 170 163 175 149 153 189 185 208 206 160 214 233 230 257 256 255 208 183 229 212 123 114 77 251 211 161 131 132 146 158 102 215 226 222 220 241 230 195 209 253 183 241 325 41 65 81 85 76 61 53 45 43 46 48 46 47
277 277 273 268 259 246 220 192 184 184 165 150 262 241 156 159 239 218 230 268 237 225 239 162 166 181 175 189 205 177 185 208 170 162 171 160 168 191 184 210 223 200 192 229 227 186 208 254 230 221 213 146 140 165 167 206 217 187 181 163 158 163 169 206 206 197 222 261 255 137 91 169 178 245 297 42 61 70 71 65 56 51 47 43 40 40 41 39
278 275 273 262 250 240 213 193 194 189 158 143 287 212 167 210 257 225 237 279 255 225 206 121 140 176 173 198 224 182 179 189 171 165 169 172 177 194 183 195 217 220 183 177 243 209 217 238 207 214 216 165 158 193 192 226 276 232 187 157 176 195 171 206 227 195 168 64 334 302 120 158 164 244 354 39 50 53 54 52 50 47 48 53 48 39 35 35
285 268 262 256 238 224 200 188 192 181 159 202 250 197 221 230 248 252 261 311 297 255 90 83 73 356 181 222 269 212 193 179 169 167 172 181 176 185 195 184 197 211 197 174 224 202 210 260 205 196 213 183 163 181 188 198 232 273 207 183 198 198 170 191 252 252 116 109 274 218 136 357 15 7 3 31 46 45 41 41 41 36 38 49 54 49 41 37
291 262 252 243 200 186 187 187 190 173 165 223 228 215 253 253 263 276 352 344 317 309 13 61 90 232 208 235 253 207 185 167 165 158 172 189 182 188 203 196 185 198 208 198 227 237 194 257 272 189 214 201 178 180 184 185 191 217 255 228 205 191 187 165 216 308 79 130 259 187 149 12 25 331 333 13 39 39 28 27 27 24 29 34 37 45 47 42
305 273 253 228 170 169 183 184 180 167 174 235 252 255 268 270 274 300 35 359 329 335 2 54 181 219 203 226 252 183 153 158 161 142 162 180 185 338 270 214 190 191 207 202 207 265 190 246 286 211 211 218 184 175 190 200 193 191 237 261 186 158 208 224 187 230 136 157 267 181 126 69 43 339 350 16 31 34 23 21 21 15 19 25 27 37 48 48
331 315 267 211 164 184 184 166 165 169 196 234 230 246 247 251 261 347 61 13 330 347 346 355 319 270 252 249 293 172 161 171 164 151 151 147 209 313 6 359 307 126 235 205 193 243 183 118 287 227 197 224 191 155 183 223 206 206 254 292 320 149 172 207 209 196 151 165 239 29 82 52 357 22 32 27 30 38 34 32 25 7 13 25 26 33 48 52
49 351 285 126 147 179 170 155 166 182 215 232 230 246 263 260 246 71 60 30 335 333 340 342 350 340 306 324 4 348 175 165 154 146 133 55 136 278 2 6 9 20 10 26 47 337 214 122 240 267 325 334 251 162 171 203 195 196 229 260 277 235 166 178 235 206 150 155 187 116 78 338 336 42 46 36 37 41 39 44 39 20 29 34 30 32 42 47
76 312 254 125 150 175 161 158 181 203 234 253 257 262 283 289 90 72 47 33 332 305 235 332 342 346 315 352 12 335 356 32 11 95 90 43 73 55 358 3 5 25 21 24 39 22 5 127 195 261 330 312 245 176 174 204 212 131 172 219 227 229 170 177 264 257 160 137 158 139 126 105 24 57 56 46 51 46 29 30 42 42 42 38 31 32 35 38
90 273 181 135 170 182 160 163 216 213 225 250 261 265 278 285 293 73 54 113 246 281 215 274 319 319 314 6 6 337 10 20 344 44 78 58 61 33 5 14 16 46 73 34 8 16 12 113 124 233 245 255 281 189 174 202 10 58 48 3 272 252 108 131 246 250 197 88 78 102 111 142 73 74 76 58 64 68 54 45 47 47 46 39 30 29 31 32
154 259 190 149 176 183 163 185 257 214 238 262 264 271 283 305 345 37 44 144 196 262 206 326 331 352 356 16 355 336 18 26 5 51 89 78 47 2 18 31 26 37 67 39 335 346 346 39 48 347 305 316 337 349 18 41 36 45 36 23 22 14 100 122 147 205 137 24 42 106 105 142 83 77 79 64 56 62 59 55 50 43 47 47 35 27 27 27
317 286 223 165 170 186 191 251 237 215 249 258 265 279 300 335 345 352 333 250 163 94 52 341 344 29 346 342 345 346 20 21 27 68 79 87 30 4 28 44 40 37 49 43 340 327 337 23 53 46 9 351 354 352 0 21 28 35 17 11 12 4 32 85 46 55 63 349 359 116 123 109 84 71 70 62 49 40 39 45 46 41 44 50 43 33 29 25
357 313 256 177 175 199 236 265 263 276 278 262 272 282 279 301 347 341 331 330 335 56 70 335 351 14 322 330 13 357 356 14 57 83 85 99 52 19 35 46 45 47 56 47 24 2 51 73 71 100 111 103 59 8 319 329 354 18 359 352 357 6 20 61 66 64 76 341 20 76 123 113 83 63 59 54 49 39 27 31 39 39 41 45 43 36 31 26
13 283 296 174 186 215 250 260 261 288 294 269 266 265 253 236 94 37 350 334 337 41 55 10 10 10 343 5 42 357 340 10 24 21 65 91 80 31 40 45 42 38 38 35 31 37 92 70 66 108 126 139 148 143 128 90 32 19 356 350 356 4 27 72 85 87 139 102 48 46 133 112 77 57 57 51 49 45 27 26 32 33 37 38 36 32 28 27
49 279 195 134 196 233 261 265 258 252 265 256 223 260 239 193 136 52 10 331 10 40 36 14 29 356 330 31 54 17 349 6 21 22 40 60 72 80 61 52 45 33 15 14 31 46 77 64 66 92 93 100 124 109 86 76 60 43 31 18 9 6 33 69 72 13 143 112 95 227 135 106 76 58 57 51 53 51 34 31 30 29 35 36 32 29 25 24
174 300 308 66 203 203 220 246 240 226 244 243 206 318 286 168 132 81 258 299 32 43 15 52 3 318 320 76 92 72 1 9 27 38 47 48 57 79 54 25 28 50 37 16 31 56 86 79 82 97 83 97 127 112 98 89 73 53 46 41 28 20 34 58 51 18 57 106 149 145 105 95 82 69 60 50 53 54 45 40 37 35 37 36 33 32 27 23
234 312 336 336 303 254 226 225 223 214 229 244 90 282 289 67 133 142 119 336 24 18 18 62 301 301 1 51 58 104 88 55 31 28 36 38 43 64 40 360 17 61 60 25 20 51 75 109 151 119 113 134 103 104 104 97 82 59 44 39 36 33 38 47 40 29 50 79 90 89 86 79 70 66 63 58 57 57 53 48 44 41 39 37 37 35 31 27
244 350 345 341 333 292 261 235 215 178 137 49 56 222 246 58 90 171 143 141 129 28 15 351 311 336 34 46 43 49 83 103 115 88 71 61 58 71 80 245 281 18 31 25 23 43 57 185 198 111 81 62 82 92 97 93 86 70 46 35 32 35 36 38 35 27 40 70 87 89 85 75 70 68 64 60 58 56 51 48 48 44 41 41 41 37 34 31
267 291 300 312 309 279 259 224 175 126 117 104 134 203 182 157 199 275 142 134 128 136 167 1 23 23 21 39 48 41 49 68 75 29 357 14 104 192 215 182 174 154 6 354 48 62 102 178 231 106 82 50 96 105 108 103 89 69 41 23 22 38 49 42 38 29 19 47 107 99 87 81 85 77 65 56 54 54 49 45 49 46 43 45 44 39 37 36
285 312 292 255 244 267 253 201 178 144 137 179 162 130 24 47 184 24 66 69 61 128 129 88 59 30 12 42 56 48 32 21 12 359 344 340 321 273 263 206 177 168 162 154 101 90 146 129 182 129 104 110 153 131 128 116 85 58 20 1 6 48 76 59 41 30 22 25 91 85 77 88 85 78 70 58 53 54 49 46 49 48 46 48 46 42 40 39